User: anonymous   Login
Location: ????????
(55.0097°N, 38.5678°E)
Time: 03:10:22
(UTC+00:00)
Language:

Cosmos 2322 Rocket - Orbit

View from above orbital plane
View from above orbital plane
View from above satellite
View from above satellite

Ground track
Ground track

The orbit data is extracted from the following two-line orbital elements,

1 23705U 95058B   24167.97581612  .00000276  00000-0  16615-3 0  9990
2 23705  71.0222  66.3940 0012564 353.3870   6.7085 14.15344646478461
Epoch (UTC): 15 June 2024 23:25:10
Eccentricity: 0.0012564
inclination: 71.0222°
perigee height: 832 km
apogee height: 850 km
right ascension of ascending node: 66.3940°
argument of perigee: 353.3870°
revolutions per day: 14.15344646
mean anomaly at epoch: 6.7085°
orbit number at epoch: 47846

The dashed part of the orbit path shows where the satellite is in the earth's shadow,  

DLR